User: anonymous   Login
Location: ?
(35.6144°N, 139.6873°E)
Time: 15:18:03
(UTC+00:00)
Language:

SPOT 3 Rocket - Orbit

View from above orbital plane
View from above orbital plane
View from above satellite
View from above satellite

Ground track
Ground track

The orbit data is extracted from the following two-line orbital elements,

1 22830U 93061H   24202.46497462  .00000576  00000-0  23006-3 0  9998
2 22830  98.5698 269.6984 0009789 246.9242 113.0910 14.32165669608842
Epoch (UTC): 20 July 2024 11:09:33
Eccentricity: 0.0009789
inclination: 98.5698°
perigee height: 777 km
apogee height: 791 km
right ascension of ascending node: 269.6984°
argument of perigee: 246.9242°
revolutions per day: 14.32165669
mean anomaly at epoch: 113.0910°
orbit number at epoch: 60884

The dashed part of the orbit path shows where the satellite is in the earth's shadow,  

DLR